Flag for USA

Past Weather in Houston, Texas, USA — Yesterday and Last 2 Weeks

Now
74 °F

Heavy rain. Fog.


Feels Like: 72 °F
Forecast: 77 / 70 °F
Wind: 17 mph from Northeast

Location: Houston Hobby Airport
Current Time: Sep 21, 2020 at 3:22:46 pm
Latest Report: Sep 21, 2020 at 2:40 pm
Visibility: 1 mi
Pressure29.86 "Hg
Humidity: 91%
Dew Point: 71 °F
Location of HoustonLocation

Past Weather in Houston — Graph

°F

Houston Temperature Yesterday

Maximum temperature yesterday: 76 °F (at 12:53 am)
Minimum temperature yesterday: 69 °F (at 6:53 am)
Average temperature yesterday: 72 °F

High & Low Weather Summary for the Past Weeks

 TemperatureHumidityPressure
High96 °F (Sep 6, 3:53 pm)91% (Sep 11, 1:53 am)30.11 "Hg (Sep 11, 1:53 am)
Low69 °F (Sep 20, 6:53 am)27% (Sep 18, 2:53 pm)29.81 "Hg (Sep 8, 3:53 am)
Average82 °F69%29.95 "Hg
* Reported Sep 6 2:53 pm — Sep 21 2:03 pm, Houston. Weather by CustomWeather, © 2020

Note: Actual official high and low records may vary slightly from our data, if they occured in-between our weather recording intervals... More about our weather records

Houston Weather History for the Previous 24 Hours

Scroll right to see more
 ConditionsComfort  
Time TempWeatherWind HumidityBarometerVisibility
2:03 pm
Mon, Sep 21
75 °FHeavy rain. Fog.15 mph88%29.88 "Hg2 mi
1:25 pm75 °FHeavy rain. Overcast.14 mph85%29.90 "Hg1 mi
12:53 pm75 °FOvercast.15 mph85%29.91 "Hg10 mi
11:53 am74 °FLight rain. Overcast.21 mph88%29.92 "Hg10 mi
10:53 am74 °FLight rain. Fog.24 mph88%29.92 "Hg4 mi
9:53 am73 °FOvercast.20 mph88%29.92 "Hg10 mi
9:37 am73 °FLight rain. Fog.18 mph88%29.91 "Hg2 mi
9:05 am73 °FOvercast.18 mph88%29.91 "Hg10 mi
7:53 am73 °FLow clouds.22 mph84%29.90 "Hg10 mi
6:53 am73 °FMostly cloudy.17 mph84%29.89 "Hg10 mi
5:53 am72 °FMostly cloudy.17 mph87%29.89 "Hg10 mi
4:53 am72 °FMostly cloudy.21 mph87%29.88 "Hg10 mi
3:53 am72 °FMostly cloudy.17 mph87%29.89 "Hg10 mi
2:53 am71 °FLight rain. Fog.20 mph90%29.90 "Hg6 mi
2:12 am71 °FHeavy rain. Fog.18 mph90%29.90 "Hg2 mi
1:53 am72 °FLight rain. Mostly cloudy.18 mph87%29.92 "Hg10 mi
12:53 am73 °FLight rain. Mostly cloudy.21 mph84%29.93 "Hg10 mi
11:53 pm
Sun, Sep 20
73 °FLight rain. Mostly cloudy.18 mph84%29.94 "Hg10 mi
10:53 pm73 °FLight rain. Mostly cloudy.18 mph88%29.94 "Hg10 mi
9:53 pm74 °FLight rain. Mostly cloudy.20 mph85%29.94 "Hg10 mi
8:53 pm74 °FRain. Mostly cloudy.21 mph85%29.93 "Hg6 mi
7:53 pm74 °FLight rain. Mostly cloudy.18 mph85%29.93 "Hg7 mi
6:53 pm74 °FMostly cloudy.15 mph85%29.92 "Hg10 mi
5:53 pm74 °FMostly cloudy.20 mph85%29.92 "Hg10 mi
4:53 pm73 °FMostly cloudy.18 mph88%29.93 "Hg10 mi
4:40 pm73 °FMostly cloudy.15 mph88%29.91 "Hg10 mi
3:53 pm73 °FLight rain. Fog.20 mph88%29.93 "Hg6 mi
Weather by CustomWeather, © 2020

See weather overview